Simultaneous Nadir Overpasses (SNOs) Predictions

Prediction of SNOs between AQUA and NOAA-19 Satellite Orbit:

Table of predicted SNOs for the next 14.0 days since TLE Epoch: 5/10/2019
Index Date (AQUA) Time (AQUA) Lat,Lon (AQUA) SZA (AQUA ) Date (NOAA-19) Time (NOAA-19) Lat,Lon (NOAA-19) SZA (NOAA-19 ) Distance(km) Time Diff (sec)
1 05/11/2019 15:58:17 80.45, -94.04 64.17 05/11/2019 15:57:21 80.43, -94.14 64.19 2.53 56
2 05/11/2019 16:47:43 -80.46, 73.47 115.82 05/11/2019 16:48:18 -80.45, 73.38 115.84 2.45 35
3 05/13/2019 21:31:59 -80.44, 2.59 116.40 05/13/2019 21:30:45 -80.43, 2.62 116.38 0.99 74
4 05/13/2019 22:21:27 80.46, 170.04 63.63 05/13/2019 22:21:47 80.44, 170.05 63.61 1.92 20
5 05/16/2019 03:55:09 -80.45, -93.33 116.92 05/16/2019 03:55:12 -80.44, -93.35 116.93 2.03 3
6 05/18/2019 09:28:52 80.43, 3.45 62.55 05/18/2019 09:28:39 80.45, 3.56 62.56 2.58 13
7 05/20/2019 15:02:34 -80.42, 100.10 117.94 05/20/2019 15:02:05 -80.44, 100.19 117.92 2.44 29
8 05/20/2019 15:52:02 80.45, -92.54 62.11 05/20/2019 15:53:06 80.44, -92.66 62.08 2.80 64
9 05/22/2019 20:36:17 80.41,-163.22 61.60 05/22/2019 20:35:32 80.43,-163.35 61.64 2.82 45




NCC Satellite Simultaneous Nadir Overpasses (SNOs) Prediction Service
